Tiempo cada hora Cedar Hill

Hoy, 20 Abril, Martes

Tiempo Temperatura Precipitaciones Viento Presión Humedad
00:00 +13°C° 0 mm 4 mps 741 mmHg 61%
01:00 +12°C° 0 mm 4 mps 740 mmHg 62%
02:00 +12°C° 0 mm 4 mps 740 mmHg 64%
03:00 +12°C° 0 mm 4 mps 740 mmHg 65%
04:00 +11°C° 0 mm 4 mps 740 mmHg 68%
05:00 +11°C° 0 mm 3 mps 740 mmHg 70%
06:00 +11°C° 0 mm 3 mps 741 mmHg 72%
07:00 +13°C° 0 mm 4 mps 741 mmHg 69%
08:00 +15°C° 0 mm 4 mps 742 mmHg 65%
09:00 +17°C° 0 mm 5 mps 742 mmHg 62%
10:00 +17°C° 0 mm 5 mps 743 mmHg 59%
11:00 +16°C° 0 mm 6 mps 743 mmHg 56%
12:00 +16°C° 0 mm 7 mps 744 mmHg 54%
13:00 +15°C° 0 mm 8 mps 744 mmHg 53%
14:00 +15°C° 0 mm 8 mps 744 mmHg 52%
15:00 +13°C° 0 mm 9 mps 744 mmHg 51%
16:00 +12°C° 0 mm 8 mps 745 mmHg 53%
17:00 +10°C° 0 mm 8 mps 745 mmHg 55%
18:00 +7°C° 0 mm 8 mps 746 mmHg 57%
19:00 +7°C° 0 mm 8 mps 747 mmHg 57%
20:00 +6°C° 0 mm 7 mps 747 mmHg 58%
21:00 +5°C° 0 mm 7 mps 748 mmHg 58%
22:00 +4°C° 0 mm 6 mps 748 mmHg 58%
23:00 +4°C° 0 mm 6 mps 748 mmHg 57%

Mañana, 21 Abril, Miércoles

Tiempo Temperatura Precipitaciones Viento Presión Humedad
00:00 +3°C° 0 mm 5 mps 749 mmHg 57%
01:00 +3°C° 0 mm 5 mps 749 mmHg 58%
02:00 +3°C° 0 mm 4 mps 749 mmHg 60%
03:00 +3°C° 0 mm 4 mps 749 mmHg 62%
04:00 +3°C° 0 mm 3 mps 749 mmHg 64%
05:00 +2°C° 0 mm 3 mps 749 mmHg 65%
06:00 +3°C° 0 mm 2 mps 749 mmHg 66%
07:00 +4°C° 0 mm 3 mps 750 mmHg 59%
08:00 +5°C° 0 mm 3 mps 750 mmHg 51%
09:00 +8°C° 0 mm 3 mps 750 mmHg 44%
10:00 +10°C° 0 mm 3 mps 750 mmHg 41%
11:00 +11°C° 0 mm 3 mps 750 mmHg 37%
12:00 +13°C° 0 mm 3 mps 750 mmHg 34%
13:00 +13°C° 0 mm 3 mps 749 mmHg 35%
14:00 +14°C° 0 mm 3 mps 748 mmHg 35%
15:00 +14°C° 0 mm 3 mps 747 mmHg 35%
16:00 +14°C° 0 mm 3 mps 747 mmHg 39%
17:00 +13°C° 0 mm 3 mps 746 mmHg 44%
18:00 +13°C° 0 mm 3 mps 746 mmHg 48%
19:00 +12°C° 0 mm 3 mps 746 mmHg 51%
20:00 +11°C° 0 mm 3 mps 746 mmHg 53%
21:00 +10°C° 0 mm 2 mps 747 mmHg 55%
22:00 +10°C° 0 mm 2 mps 746 mmHg 56%
23:00 +9°C° 0 mm 2 mps 746 mmHg 57%

Pasado mañana, 22 Abril, Jueves

Tiempo Temperatura Precipitaciones Viento Presión Humedad
00:00 +9°C° 0 mm 2 mps 746 mmHg 58%
01:00 +9°C° 0 mm 2 mps 746 mmHg 59%
02:00 +8°C° 0 mm 3 mps 745 mmHg 60%
03:00 +8°C° 0 mm 3 mps 745 mmHg 61%
04:00 +7°C° 0 mm 3 mps 745 mmHg 62%
05:00 +7°C° 0 mm 3 mps 746 mmHg 64%
06:00 +7°C° 0 mm 2 mps 746 mmHg 66%
07:00 +8°C° 0 mm 3 mps 746 mmHg 64%
08:00 +8°C° 0 mm 4 mps 746 mmHg 62%
09:00 +10°C° 0 mm 4 mps 746 mmHg 60%
10:00 +10°C° 0 mm 5 mps 746 mmHg 59%
11:00 +12°C° 0 mm 5 mps 746 mmHg 57%
12:00 +13°C° 0 mm 5 mps 745 mmHg 56%
13:00 +14°C° 0 mm 5 mps 744 mmHg 57%
14:00 +15°C° 0 mm 4 mps 744 mmHg 58%
15:00 +17°C° 0 mm 4 mps 743 mmHg 59%
16:00 +16°C° 0 mm 3 mps 742 mmHg 62%
17:00 +16°C° 0 mm 3 mps 742 mmHg 66%
18:00 +15°C° 0 mm 2 mps 742 mmHg 70%
19:00 +14°C° 0.1 mm 3 mps 742 mmHg 76%
20:00 +13°C° 0.1 mm 3 mps 742 mmHg 82%
21:00 +13°C° 0.1 mm 3 mps 743 mmHg 87%
22:00 +13°C° 0.2 mm 3 mps 742 mmHg 89%
23:00 +12°C° 0.2 mm 3 mps 742 mmHg 90%

23 Abril, Viernes

Tiempo Temperatura Precipitaciones Viento Presión Humedad
00:00 +12°C° 0.2 mm 3 mps 742 mmHg 92%
01:00 +12°C° 0 mm 3 mps 741 mmHg 93%
02:00 +12°C° 0 mm 4 mps 741 mmHg 93%
03:00 +12°C° 0 mm 4 mps 740 mmHg 94%
04:00 +12°C° 0 mm 4 mps 740 mmHg 95%
05:00 +13°C° 0 mm 4 mps 740 mmHg 96%
06:00 +13°C° 0 mm 3 mps 739 mmHg 97%
07:00 +13°C° 0.6 mm 4 mps 739 mmHg 97%
08:00 +14°C° 0.6 mm 4 mps 739 mmHg 97%
09:00 +14°C° 0.6 mm 4 mps 739 mmHg 97%
10:00 +15°C° 1.6 mm 4 mps 739 mmHg 97%
11:00 +15°C° 1.6 mm 4 mps 738 mmHg 97%
12:00 +17°C° 1.6 mm 4 mps 737 mmHg 97%
13:00 +17°C° 5.1 mm 4 mps 737 mmHg 97%
14:00 +17°C° 5.1 mm 4 mps 736 mmHg 98%
15:00 +17°C° 5.1 mm 4 mps 735 mmHg 98%
16:00 +17°C° 1.1 mm 4 mps 735 mmHg 98%
17:00 +16°C° 1.1 mm 5 mps 734 mmHg 98%
18:00 +16°C° 1.1 mm 5 mps 734 mmHg 97%
19:00 +17°C° 2.5 mm 4 mps 734 mmHg 98%
20:00 +17°C° 2.5 mm 3 mps 735 mmHg 98%
21:00 +16°C° 2.5 mm 1 mps 736 mmHg 98%
22:00 +16°C° 1.2 mm 2 mps 735 mmHg 98%
23:00 +16°C° 1.2 mm 3 mps 734 mmHg 98%

24 Abril, Sábado

Tiempo Temperatura Precipitaciones Viento Presión Humedad
00:00 +15°C° 1.2 mm 4 mps 733 mmHg 98%
01:00 +14°C° 0 mm 3 mps 733 mmHg 98%
02:00 +15°C° 0 mm 2 mps 734 mmHg 98%
03:00 +15°C° 0 mm 2 mps 734 mmHg 98%
04:00 +16°C° 0 mm 2 mps 734 mmHg 97%
05:00 +16°C° 0 mm 1 mps 734 mmHg 96%
06:00 +16°C° 0 mm 1 mps 734 mmHg 96%
07:00 +17°C° 0 mm 2 mps 735 mmHg 90%
08:00 +18°C° 0 mm 2 mps 736 mmHg 83%
09:00 +20°C° 0 mm 3 mps 736 mmHg 77%
10:00 +20°C° 0 mm 4 mps 737 mmHg 76%
11:00 +20°C° 0 mm 5 mps 737 mmHg 74%
12:00 +20°C° 0 mm 6 mps 738 mmHg 73%
13:00 +20°C° 0 mm 6 mps 738 mmHg 73%
14:00 +20°C° 0 mm 5 mps 738 mmHg 73%
15:00 +20°C° 0 mm 5 mps 739 mmHg 72%
16:00 +20°C° 0 mm 5 mps 739 mmHg 75%
17:00 +20°C° 0 mm 5 mps 740 mmHg 77%
18:00 +19°C° 0 mm 5 mps 740 mmHg 79%
19:00 +19°C° 0 mm 4 mps 741 mmHg 81%
20:00 +18°C° 0 mm 4 mps 741 mmHg 82%
21:00 +17°C° 0 mm 4 mps 742 mmHg 84%
22:00 +17°C° 0 mm 3 mps 742 mmHg 86%
23:00 +16°C° 0 mm 3 mps 743 mmHg 88%

25 Abril, Domingo

Tiempo Temperatura Precipitaciones Viento Presión Humedad
00:00 +15°C° 0 mm 2 mps 743 mmHg 90%
01:00 +14°C° 0 mm 2 mps 743 mmHg 91%
02:00 +14°C° 0 mm 2 mps 742 mmHg 91%
03:00 +14°C° 0 mm 2 mps 742 mmHg 92%
04:00 +13°C° 0 mm 2 mps 742 mmHg 92%
05:00 +13°C° 0 mm 2 mps 743 mmHg 93%
06:00 +13°C° 0 mm 2 mps 743 mmHg 93%
07:00 +15°C° 0 mm 2 mps 743 mmHg 88%
08:00 +16°C° 0 mm 2 mps 744 mmHg 83%
09:00 +18°C° 0 mm 2 mps 744 mmHg 78%
10:00 +20°C° 0 mm 2 mps 744 mmHg 72%
11:00 +23°C° 0 mm 2 mps 744 mmHg 65%
12:00 +24°C° 0 mm 3 mps 744 mmHg 59%
13:00 +25°C° 0 mm 3 mps 743 mmHg 57%
14:00 +26°C° 0 mm 3 mps 742 mmHg 55%
15:00 +26°C° 0 mm 3 mps 742 mmHg 53%
16:00 +26°C° 0 mm 3 mps 742 mmHg 57%
17:00 +25°C° 0 mm 3 mps 741 mmHg 61%
18:00 +25°C° 0 mm 3 mps 741 mmHg 66%
19:00 +22°C° 0 mm 3 mps 741 mmHg 71%
20:00 +21°C° 0 mm 3 mps 741 mmHg 77%
21:00 +19°C° 0 mm 3 mps 741 mmHg 82%
22:00 +18°C° 0 mm 3 mps 741 mmHg 84%
23:00 +18°C° 0 mm 3 mps 741 mmHg 86%
Mostrar más

Necesitamos Su Consentimiento

Meteoprog y nuestros Proveedores de Servicios pueden almacenar y acceder a sus datos personales como cookies, identificadores de dispositivo u otras tecnologías similares de su dispositivo y procesar dichos datos para personalizar contenido y anuncios, además de ofrecer funciones de redes sociales y analizar el tráfico.

  • Almacenar y/o acceder a información en su dispositivo

    Se puede almacenar o acceder a cookies, identificadores de dispositivo u otra información de su dispositivo para los fines anteriormente indicados.

  • Anuncios y contenido personalizados, medición de anuncios y contenido, percepciones del público, y desarrollo de productos

    Los anuncios y el contenido pueden personalizarse en base a su perfil. Se pueden añadir más datos para personalizar mejor los anuncios y contenidos. Se puede medir el rendimiento de los anuncios y contenidos. Se puede obtener la percepción sobre el público que ha visto los anuncios y contenidos. Dichos datos pueden usarse para desarrollar o mejorar la experiencia del usuario, sistemas y software.

Al hacer clic en ‘Estoy De Acuerdo’ usted permitirá el uso de las cookies, identificadores de dispositivo, balizas web u otras tecnologías similares indicadas. Su configuración puede cambiarse desde el navegador de su dispositivo.

Para ciertos fines, los intereses legítimos pueden ser considerados por encima del consentimiento. Puede leer más sobre ello en nuestra Política de Privacidad y Cookies.